EJA801 KSNA-KSDL

Flight info

Callsign EJA801
Flight time N/A
Altitude 41000
Route BLH ARLIN4
Aircraft CL60/M-SBDE1E2E3FGHIJ1J4J5J7M3RWXYZ/LB1V1D1

Departure

Time N/A
Airport John Wayne Orange County International Airport (KSNA)

Arrival

Time 2026-04-24 04:03
Airport Scottsdale Airport (KSDL)
Time Latitude Longitude Altitude Speed Heading
2026-04-24 03:07 33.50294 -117.14064 23091 ft 434 kts 91°
2026-04-24 03:07 33.50253 -117.10441 23673 ft 437 kts 88°
2026-04-24 03:07 33.50414 -117.06776 24195 ft 442 kts 85°
2026-04-24 03:07 33.50605 -117.03050 24710 ft 446 kts 85°
2026-04-24 03:08 33.50787 -116.99339 25206 ft 451 kts 85°
2026-04-24 03:08 33.51155 -116.91763 26198 ft 457 kts 85°
2026-04-24 03:08 33.51339 -116.87915 26667 ft 461 kts 86°
2026-04-24 03:09 33.51524 -116.84058 27099 ft 464 kts 86°
2026-04-24 03:09 33.51709 -116.80148 27503 ft 468 kts 86°
2026-04-24 03:09 33.51891 -116.76283 27917 ft 471 kts 86°
2026-04-24 03:09 33.52075 -116.72334 28310 ft 474 kts 86°
2026-04-24 03:10 33.52256 -116.68408 28702 ft 477 kts 86°
2026-04-24 03:10 33.52441 -116.64385 29072 ft 480 kts 86°
2026-04-24 03:10 33.52626 -116.60339 29427 ft 483 kts 86°
2026-04-24 03:10 33.52811 -116.56260 29807 ft 484 kts 86°
2026-04-24 03:11 33.52993 -116.52343 30876 ft 460 kts 85°
2026-04-24 03:11 33.53413 -116.48550 31100 ft 465 kts 82°
2026-04-24 03:11 33.53636 -116.44585 31281 ft 472 kts 88°
2026-04-24 03:11 33.53766 -116.40591 31277 ft 483 kts 87°
2026-04-24 03:12 33.53907 -116.36546 31298 ft 493 kts 87°
2026-04-24 03:12 33.54342 -116.28187 31488 ft 504 kts 81°
2026-04-24 03:13 33.54991 -116.19686 31596 ft 516 kts 89°
2026-04-24 03:13 33.55075 -116.15353 31952 ft 513 kts 89°
2026-04-24 03:13 33.55164 -116.11103 32565 ft 506 kts 89°
2026-04-24 03:13 33.55261 -116.06913 33147 ft 499 kts 89°
2026-04-24 03:14 33.55363 -116.02758 33627 ft 495 kts 88°
2026-04-24 03:14 33.55475 -115.98630 34023 ft 493 kts 88°
2026-04-24 03:14 33.55613 -115.94437 34339 ft 492 kts 88°
2026-04-24 03:14 33.55753 -115.90359 34593 ft 493 kts 88°
2026-04-24 03:15 33.55896 -115.86213 34831 ft 495 kts 87°
2026-04-24 03:15 33.56043 -115.82023 35072 ft 497 kts 88°
2026-04-24 03:15 33.56189 -115.77892 35355 ft 498 kts 87°
2026-04-24 03:15 33.56337 -115.73713 35665 ft 498 kts 87°
2026-04-24 03:16 33.56485 -115.69559 36009 ft 497 kts 88°
2026-04-24 03:16 33.56632 -115.65424 36297 ft 498 kts 88°
2026-04-24 03:16 33.56782 -115.61227 36523 ft 499 kts 88°
2026-04-24 03:16 33.56929 -115.57082 36745 ft 500 kts 88°
2026-04-24 03:17 33.57077 -115.52882 36994 ft 501 kts 87°
2026-04-24 03:17 33.57226 -115.48663 37225 ft 502 kts 88°
2026-04-24 03:17 33.57372 -115.44498 37455 ft 503 kts 88°
2026-04-24 03:17 33.57520 -115.40284 37702 ft 503 kts 87°
2026-04-24 03:18 33.57664 -115.36107 37891 ft 504 kts 88°
2026-04-24 03:18 33.57811 -115.31856 38092 ft 504 kts 88°
2026-04-24 03:18 33.57956 -115.27634 38262 ft 505 kts 88°
2026-04-24 03:18 33.58099 -115.23408 38450 ft 506 kts 88°
2026-04-24 03:19 33.58241 -115.19194 38593 ft 507 kts 88°
2026-04-24 03:19 33.58382 -115.14971 38741 ft 507 kts 88°
2026-04-24 03:19 33.58523 -115.10726 38885 ft 508 kts 88°
2026-04-24 03:19 33.58662 -115.06483 39060 ft 508 kts 88°
2026-04-24 03:20 33.58801 -115.02219 39246 ft 508 kts 88°
2026-04-24 03:20 33.58937 -114.97990 39384 ft 508 kts 88°
2026-04-24 03:20 33.59074 -114.93718 39590 ft 507 kts 88°
2026-04-24 03:20 33.59208 -114.89461 39779 ft 507 kts 88°
2026-04-24 03:21 33.59342 -114.85190 39974 ft 506 kts 88°
2026-04-24 03:21 33.59469 -114.81029 40105 ft 506 kts 89°
2026-04-24 03:21 33.59410 -114.76778 40243 ft 504 kts 96°
2026-04-24 03:21 33.58921 -114.72644 40393 ft 501 kts 104°
2026-04-24 03:22 33.58141 -114.68518 40449 ft 502 kts 106°
2026-04-24 03:22 33.56551 -114.60342 40602 ft 504 kts 105°
2026-04-24 03:22 33.55758 -114.56271 40750 ft 503 kts 106°
2026-04-24 03:23 33.54962 -114.52190 40881 ft 502 kts 106°
2026-04-24 03:23 33.53357 -114.43989 40877 ft 504 kts 106°
2026-04-24 03:24 33.51747 -114.35793 40902 ft 508 kts 105°
2026-04-24 03:24 33.50102 -114.27455 40892 ft 511 kts 106°
2026-04-24 03:25 33.48450 -114.19108 40898 ft 514 kts 107°
2026-04-24 03:25 33.46787 -114.10736 40911 ft 516 kts 106°
2026-04-24 03:26 33.45115 -114.02351 40908 ft 518 kts 107°
2026-04-24 03:26 33.43422 -113.93893 40914 ft 520 kts 107°
2026-04-24 03:27 33.41722 -113.85437 40917 ft 522 kts 106°
2026-04-24 03:27 33.39999 -113.76895 40916 ft 524 kts 107°
2026-04-24 03:28 33.38271 -113.68362 40917 ft 526 kts 106°
2026-04-24 03:28 33.36529 -113.59795 40917 ft 527 kts 107°
2026-04-24 03:29 33.34792 -113.51286 40913 ft 529 kts 106°
2026-04-24 03:29 33.33036 -113.42712 40921 ft 530 kts 107°
2026-04-24 03:30 33.31264 -113.34090 40908 ft 532 kts 107°
2026-04-24 03:30 33.29483 -113.25460 40912 ft 532 kts 107°
2026-04-24 03:31 33.27804 -113.16840 40819 ft 536 kts 102°
2026-04-24 03:31 33.27367 -113.12354 39754 ft 553 kts 94°
2026-04-24 03:31 33.27391 -113.07724 38821 ft 557 kts 89°
2026-04-24 03:31 33.27520 -113.03079 37685 ft 556 kts 89°
2026-04-24 03:32 33.27640 -112.98478 36535 ft 552 kts 89°
2026-04-24 03:32 33.27755 -112.93966 36176 ft 533 kts 89°
2026-04-24 03:32 33.27866 -112.89573 35920 ft 514 kts 89°
2026-04-24 03:32 33.27970 -112.85370 35418 ft 504 kts 88°
2026-04-24 03:33 33.28073 -112.81156 34788 ft 497 kts 89°
2026-04-24 03:33 33.28173 -112.77007 34096 ft 491 kts 88°
2026-04-24 03:33 33.28269 -112.72979 33440 ft 485 kts 88°
2026-04-24 03:33 33.28363 -112.68960 32768 ft 480 kts 88°
2026-04-24 03:34 33.28453 -112.65016 32056 ft 476 kts 88°
2026-04-24 03:34 33.28461 -112.61079 31413 ft 470 kts 94°
2026-04-24 03:34 33.27912 -112.57256 30749 ft 461 kts 109°
2026-04-24 03:34 33.26713 -112.53743 30049 ft 451 kts 123°
2026-04-24 03:35 33.24984 -112.50687 29398 ft 438 kts 136°
2026-04-24 03:35 33.22840 -112.48169 28703 ft 425 kts 148°
2026-04-24 03:35 33.20399 -112.46258 28079 ft 409 kts 160°
2026-04-24 03:35 33.17825 -112.44980 27406 ft 396 kts 171°
2026-04-24 03:36 33.15166 -112.44286 26670 ft 385 kts 180°
2026-04-24 03:36 33.12471 -112.44128 25363 ft 389 kts 190°
2026-04-24 03:36 33.09796 -112.44557 24259 ft 384 kts 200°
2026-04-24 03:36 33.07305 -112.45506 23215 ft 378 kts 209°
2026-04-24 03:37 33.04980 -112.46954 22143 ft 372 kts 218°
2026-04-24 03:37 33.02967 -112.48789 21203 ft 363 kts 227°
2026-04-24 03:37 33.01266 -112.50966 20373 ft 352 kts 236°
2026-04-24 03:37 32.99929 -112.53357 19542 ft 343 kts 244°
2026-04-24 03:38 32.98952 -112.55883 18705 ft 336 kts 252°
2026-04-24 03:38 32.98307 -112.58542 17856 ft 330 kts 260°
2026-04-24 03:38 32.98002 -112.61213 16960 ft 327 kts 267°
2026-04-24 03:38 32.97915 -112.63886 16226 ft 319 kts 269°
2026-04-24 03:39 32.97858 -112.66462 16136 ft 301 kts 268°
2026-04-24 03:39 32.97806 -112.68895 16038 ft 287 kts 269°
2026-04-24 03:39 32.98063 -112.71212 15694 ft 282 kts 290°
2026-04-24 03:39 32.99256 -112.73044 15239 ft 290 kts 320°
2026-04-24 03:40 33.01158 -112.73956 14765 ft 302 kts 342°
2026-04-24 03:40 33.03285 -112.74214 14315 ft 309 kts 355°
2026-04-24 03:40 33.05464 -112.73885 14012 ft 310 kts
2026-04-24 03:40 33.07507 -112.72965 13954 ft 321 kts 22°
2026-04-24 03:41 33.09394 -112.71456 13922 ft 321 kts 36°
2026-04-24 03:41 33.10920 -112.69501 13368 ft 325 kts 52°
2026-04-24 03:41 33.11989 -112.67116 12723 ft 329 kts 69°
2026-04-24 03:41 33.12585 -112.64494 12258 ft 324 kts 76°
2026-04-24 03:42 33.13096 -112.61912 11852 ft 317 kts 75°
2026-04-24 03:42 33.13604 -112.59374 11385 ft 312 kts 75°
2026-04-24 03:42 33.14107 -112.56860 10866 ft 310 kts 75°
2026-04-24 03:42 33.14600 -112.54388 10402 ft 306 kts 75°
2026-04-24 03:43 33.15086 -112.51952 9907 ft 303 kts 75°
2026-04-24 03:43 33.15580 -112.49476 9227 ft 307 kts 75°
2026-04-24 03:43 33.16076 -112.46990 8433 ft 313 kts 75°
2026-04-24 03:43 33.16579 -112.44457 7535 ft 320 kts 75°
2026-04-24 03:44 33.17092 -112.41877 6723 ft 320 kts 75°
2026-04-24 03:44 33.17604 -112.39298 6014 ft 315 kts 75°
2026-04-24 03:44 33.18105 -112.36768 5364 ft 309 kts 75°
2026-04-24 03:44 33.18607 -112.34228 5079 ft 311 kts 76°
2026-04-24 03:45 33.19112 -112.31673 5015 ft 313 kts 76°
2026-04-24 03:45 33.19609 -112.29157 5024 ft 314 kts 76°
2026-04-24 03:45 33.20108 -112.26560 5036 ft 316 kts 77°
2026-04-24 03:45 33.20598 -112.23982 5042 ft 316 kts 77°
2026-04-24 03:46 33.21077 -112.21441 5030 ft 316 kts 78°
2026-04-24 03:46 33.21562 -112.18933 5030 ft 299 kts 76°
2026-04-24 03:46 33.22025 -112.16613 5037 ft 279 kts 76°
2026-04-24 03:46 33.22476 -112.14352 5024 ft 273 kts 75°
2026-04-24 03:47 33.22933 -112.12199 5021 ft 262 kts 72°
2026-04-24 03:47 33.23430 -112.10053 5048 ft 274 kts 72°
2026-04-24 03:47 33.23944 -112.07785 5023 ft 289 kts 73°
2026-04-24 03:47 33.24471 -112.05370 5013 ft 302 kts 73°
2026-04-24 03:48 33.25093 -112.02938 4990 ft 310 kts 70°
2026-04-24 03:48 33.25393 -112.00379 5033 ft 310 kts 93°
2026-04-24 03:48 33.24823 -111.97916 5055 ft 309 kts 114°
2026-04-24 03:48 33.24045 -111.95484 4998 ft 312 kts 99°
2026-04-24 03:49 33.24209 -111.92922 4953 ft 312 kts 68°
2026-04-24 03:49 33.25438 -111.90801 4939 ft 309 kts 37°
2026-04-24 03:49 33.27341 -111.89750 4939 ft 303 kts
2026-04-24 03:49 33.29427 -111.90009 4937 ft 297 kts 334°
2026-04-24 03:50 33.31034 -111.91483 4934 ft 292 kts 305°
2026-04-24 03:50 33.32250 -111.93398 4968 ft 280 kts 314°
2026-04-24 03:50 33.33834 -111.94691 5006 ft 268 kts 329°
2026-04-24 03:50 33.35504 -111.95624 5010 ft 255 kts 336°
2026-04-24 03:51 33.37146 -111.96316 5009 ft 243 kts 338°
2026-04-24 03:51 33.38723 -111.96970 5005 ft 239 kts 336°
2026-04-24 03:51 33.40312 -111.97644 4999 ft 239 kts 337°
2026-04-24 03:51 33.41902 -111.98312 4996 ft 239 kts 336°
2026-04-24 03:52 33.43461 -111.98945 4966 ft 229 kts 340°
2026-04-24 03:52 33.44965 -111.99528 4713 ft 227 kts 339°
2026-04-24 03:52 33.46467 -112.00114 4558 ft 218 kts 339°
2026-04-24 03:52 33.47870 -112.00661 4395 ft 205 kts 339°
2026-04-24 03:53 33.49229 -112.01195 4048 ft 201 kts 339°
2026-04-24 03:53 33.50507 -112.01701 3989 ft 185 kts 336°
2026-04-24 03:53 33.51708 -112.02219 3993 ft 177 kts 334°
2026-04-24 03:53 33.52852 -112.02722 3996 ft 173 kts 334°
2026-04-24 03:54 33.53985 -112.03218 3997 ft 171 kts 333°
2026-04-24 03:54 33.55108 -112.03712 4002 ft 170 kts 333°
2026-04-24 03:54 33.56208 -112.04199 4008 ft 172 kts 333°
2026-04-24 03:54 33.57352 -112.04697 4011 ft 173 kts 333°
2026-04-24 03:55 33.58488 -112.05184 4014 ft 175 kts 333°
2026-04-24 03:55 33.59652 -112.05675 4017 ft 177 kts 334°
2026-04-24 03:55 33.60839 -112.06177 4018 ft 180 kts 334°
2026-04-24 03:55 33.62041 -112.06680 4018 ft 182 kts 335°
2026-04-24 03:56 33.63248 -112.07184 4020 ft 183 kts 335°
2026-04-24 03:56 33.64445 -112.07681 3989 ft 179 kts 335°
2026-04-24 03:56 33.65646 -112.08096 4008 ft 173 kts 346°
2026-04-24 03:56 33.66832 -112.07984 4048 ft 171 kts 12°
2026-04-24 03:57 33.67793 -112.07143 4095 ft 175 kts 39°
2026-04-24 03:57 33.68606 -112.05988 4095 ft 186 kts 42°
2026-04-24 03:57 33.69449 -112.04744 4067 ft 196 kts 44°
2026-04-24 03:57 33.70324 -112.03410 4059 ft 203 kts 45°
2026-04-24 03:58 33.71196 -112.02052 4054 ft 208 kts 47°
2026-04-24 03:58 33.72164 -112.00744 4149 ft 206 kts 45°
2026-04-24 03:58 33.72972 -111.99320 4226 ft 206 kts 59°
2026-04-24 03:58 33.73344 -111.97639 4139 ft 212 kts 84°
2026-04-24 03:59 33.73123 -111.95917 4123 ft 207 kts 104°
2026-04-24 03:59 33.72600 -111.94264 3857 ft 207 kts 117°
2026-04-24 03:59 33.71719 -111.93027 3620 ft 179 kts 144°
2026-04-24 03:59 33.70868 -111.92118 3414 ft 162 kts 130°
2026-04-24 04:00 33.70139 -111.91039 3080 ft 161 kts 127°
2026-04-24 04:00 33.69422 -111.90025 2876 ft 155 kts 128°
2026-04-24 04:00 33.68708 -111.89065 2648 ft 153 kts 127°
2026-04-24 04:00 33.67966 -111.88161 2438 ft 147 kts 140°
2026-04-24 04:01 33.67047 -111.87717 2275 ft 138 kts 168°
2026-04-24 04:01 33.66103 -111.87656 2171 ft 136 kts 184°
2026-04-24 04:01 33.65185 -111.87971 2056 ft 138 kts 200°
2026-04-24 04:01 33.64390 -111.88615 1925 ft 136 kts 217°
2026-04-24 04:02 33.63706 -111.89414 1764 ft 137 kts 220°
2026-04-24 04:02 33.63008 -111.90213 1530 ft 139 kts 220°
2026-04-24 04:02 33.62372 -111.90969 1483 ft 116 kts 225°
2026-04-24 04:02 33.61829 -111.91612 1462 ft 77 kts 222°
2026-04-24 04:03 33.61634 -111.91809 1456 ft 6 kts 222°
2026-04-24 04:03 33.61632 -111.91812 1456 ft 0 kts 224°
2026-04-24 04:03 33.61623 -111.91822 1456 ft 5 kts 224°
2026-04-24 04:03 33.61579 -111.91873 1455 ft 12 kts 224°
2026-04-24 04:04 33.61542 -111.91969 1453 ft 13 kts 273°
2026-04-24 04:04 33.61581 -111.91978 1454 ft 6 kts 38°
2026-04-24 04:04 33.61612 -111.91946 1454 ft 4 kts 42°
2026-04-24 04:04 33.61637 -111.91919 1455 ft 6 kts 43°
2026-04-24 04:05 33.61682 -111.91910 1456 ft 8 kts 314°
2026-04-24 04:05 33.61721 -111.91959 1456 ft 3 kts 312°
2026-04-24 04:05 33.61722 -111.91961 1456 ft 0 kts 312°